This is the latest recevied weather packets stored in our database for station/object EA3FL-15. If no packets are shown the sender has not sent any weather packets the latest 10 day(s).
| Time | Temp. | Humidity | Pressure | Rain* | Wind** | Luminosity | Snow |
|---|---|---|---|---|---|---|---|
| 1777667997 | 17.78° C | 100% | 1027.6 hPa | - | - | - | - |
| 1777667097 | 17.78° C | 100% | 1027.5 hPa | - | - | - | - |
| 1777666197 | 17.78° C | 100% | 1027.4 hPa | - | - | - | - |
| 1777665297 | 17.78° C | 100% | 1027.2 hPa | - | - | - | - |
| 1777664397 | 17.78° C | 100% | 1027.2 hPa | - | - | - | - |
| 1777663497 | 17.78° C | 100% | 1026.9 hPa | - | - | - | - |
| 1777662597 | 17.78° C | 100% | 1026.7 hPa | - | - | - | - |
| 1777661697 | 17.78° C | 100% | 1026.6 hPa | - | - | - | - |
| 1777660797 | 17.78° C | 100% | 1026.3 hPa | - | - | - | - |
| 1777659896 | 17.78° C | 100% | 1026.2 hPa | - | - | - | - |
| 1777658996 | 18.33° C | 100% | 1026.1 hPa | - | - | - | - |
| 1777658096 | 18.33° C | 100% | 1025.9 hPa | - | - | - | - |
| 1777657196 | 18.33° C | 100% | 1025.8 hPa | - | - | - | - |
| 1777656296 | 18.89° C | 100% | 1025.7 hPa | - | - | - | - |
| 1777655396 | 18.89° C | 100% | 1025.6 hPa | - | - | - | - |
| 1777654496 | 18.33° C | 100% | 1025.6 hPa | - | - | - | - |
| 1777653596 | 19.44° C | 100% | 1025.4 hPa | - | - | - | - |
| 1777652695 | 19.44° C | 100% | 1025.3 hPa | - | - | - | - |
| 1777651795 | 19.44° C | 100% | 1025.2 hPa | - | - | - | - |
| 1777650895 | 20° C | 100% | 1025.2 hPa | - | - | - | - |
| 1777649995 | 19.44° C | 100% | 1025.4 hPa | - | - | - | - |
| 1777649095 | 19.44° C | 100% | 1025.3 hPa | - | - | - | - |
| 1777648195 | 20° C | 100% | 1025.3 hPa | - | - | - | - |
| 1777647294 | 20° C | 100% | 1025.3 hPa | - | - | - | - |
| 1777646394 | 19.44° C | 100% | 1025.3 hPa | - | - | - | - |
* Rain since midnight (hover to see other rain measurements)
** Current wind speed in m/s (hover to see current wind gust speed)